FENGYUN 1C DEB, 31463

Orbit data source: Space-Track

FENGYUN 1C DEB, 31463 is space debris in SSO originally from a launch on Mon, 10 May 1999 UTC launched from the Taiyaun Space Center, China (TSC). Fengyun 1C debris stems from the Chinese weather satellite Fengyun-1C, which was intentionally destroyed by a Chinese anti-satellite missile in 2007. This event dramatically increased the amount of space debris, with thousands of trackable fragments posing hazards to satellites and human spaceflight. The Fengyun 1C debris cloud has become a focal point in discussions about space sustainability and the need for international regulations to prevent the creation of new debris.

Loading next visibility...
Identifier
31463, 1999-025BVB
Orbit
SSO
Country
Flag of CNCN / PRC
Related business
Manufacturer
Unknown
Mission
Spacecraft
Bus & Motor
Unknown
Mass
Unknown
Launch date (UTC)
1999-05-10 (27 years ago)
Launch vehicle
Unknown
Launch site
Taiyaun Space Center, China (TSC)
Object type
Payload
Rocket body
Debris
Shape & HBR
Unknown shape, 0.1 m
Radar Cross Section
Small (<0.1 m²)

Expand to show TLE details & history
Last TLE update: 3 days ago

TLE from 3 days ago
0 FENGYUN 1C DEB
1 31463U 99025BVB 26167.20457444  .00000541  00000-0  15501-3 0  9999
2 31463  99.0933 164.4990 0210570 215.5064 143.1954 14.37551422673842
Epoch: 2026-06-16T04:54Z
TLE epoch observation values (Epoch: 2026-06-16T04:54:35.231Z)
Latitude
-0.00002°
Longitude
-173.62775°
Altitude
891.119 km
Speed
7.343 km/s
True Right ascension
10h 57m 59s
True Declination
0° 00' 00"
Sunlit
Object was in daylight at epoch
Visualization orbit readout
Latitude
Unknown
Longitude
Unknown
Altitude
Unknown
Speed
Unknown
Apparent Right ascension
Unknown
Apparent Declination
Unknown
Sunlit
N/A
Visualization observer readout
Local Sidereal Time
07:53:22
Azimuth
Unknown
Elevation
Unknown
Doppler factor
Unknown
Orbital elements
Apogee altitude
914.139 km
Perigee altitude
613.365 km
Semi-major axis
7,141.889 km
Eccentricity
0.02106
Inclination
99.0933°
RAAN
164.499°
Arg. of periapsis
215.5064°
True anomaly
144.61097°
Mean anomaly
143.1954°
Eccentric anomaly
143.90615°
Mean motion
3.59603 °/min
Orbital period
100.11 mins
BSTAR
0.00015501
Loading maneuver chart data...
Computing Atmospheric mass density...
Loading historical data...
Loading historical data...
Loading historical data...
Loading historical data...
Loading historical data...
Loading historical data...
Loading historical data...

Documentation

Showing up to 5 results
|